Time,TemperatureF,DewpointF,PressureIn,WindDirection,WindDirectionDegrees,WindSpeedMPH,WindSpeedGustMPH,Humidity,HourlyPrecipIn,Conditions,Clouds,dailyrainin,SoftwareType,DateUTC
2013-02-23 00:00:00,70.5,68.0,29.97,SSE,165,2.0,10.0,92,0.00,,,0.00,meteohub,2013-02-23 05:00:00,
2013-02-23 00:02:00,70.5,68.0,29.97,SSE,161,7.0,10.0,92,0.00,,,0.00,meteohub,2013-02-23 05:02:00,
2013-02-23 00:06:00,70.5,68.0,29.97,SSE,166,0.0,10.0,92,0.00,,,0.00,meteohub,2013-02-23 05:06:00,
2013-02-23 00:09:00,70.5,68.0,29.97,South,170,9.0,10.0,92,0.00,,,0.00,meteohub,2013-02-23 05:09:00,
2013-02-23 00:15:00,70.5,68.0,29.97,SSE,160,6.0,10.0,92,0.00,,,0.00,meteohub,2013-02-23 05:15:00,
2013-02-23 00:21:00,70.5,68.0,29.97,SSE,161,7.0,11.0,92,0.00,,,0.00,meteohub,2013-02-23 05:21:00,
2013-02-23 00:27:00,70.5,68.0,29.96,South,177,5.0,11.0,92,0.00,,,0.00,meteohub,2013-02-23 05:27:00,
2013-02-23 00:32:00,70.3,67.8,29.96,SSE,155,4.0,12.0,92,0.00,,,0.00,meteohub,2013-02-23 05:32:00,
2013-02-23 00:39:00,70.3,67.8,29.96,South,171,4.0,12.0,92,0.00,,,0.00,meteohub,2013-02-23 05:39:00,
2013-02-23 00:45:00,70.3,67.8,29.96,South,169,3.0,13.0,92,0.00,,,0.00,meteohub,2013-02-23 05:45:00,
2013-02-23 00:51:00,70.3,67.8,29.96,SSE,161,2.0,13.0,92,0.00,,,0.00,meteohub,2013-02-23 05:51:00,
2013-02-23 00:57:00,70.3,67.8,29.96,SSE,149,5.0,13.0,92,0.00,,,0.00,meteohub,2013-02-23 05:57:00,
2013-02-23 01:02:00,70.3,67.8,29.96,South,170,6.0,13.0,92,0.00,,,0.00,meteohub,2013-02-23 06:02:00,
2013-02-23 01:07:00,70.2,67.6,29.96,SSE,154,4.0,10.0,92,0.00,,,0.00,meteohub,2013-02-23 06:07:00,
2013-02-23 01:12:00,70.2,68.0,29.95,SSE,161,4.0,10.0,93,0.00,,,0.00,meteohub,2013-02-23 06:12:00,
2013-02-23 01:17:00,70.2,68.0,29.95,South,170,4.0,10.0,93,0.00,,,0.00,meteohub,2013-02-23 06:17:00,
2013-02-23 01:22:00,70.2,68.0,29.95,SSE,158,3.0,10.0,93,0.00,,,0.00,meteohub,2013-02-23 06:22:00,
2013-02-23 01:28:00,70.2,68.0,29.95,South,169,3.0,8.0,93,0.00,,,0.00,meteohub,2013-02-23 06:28:00,
2013-02-23 01:34:00,70.2,68.0,29.95,SSE,147,5.0,8.0,93,0.00,,,0.00,meteohub,2013-02-23 06:34:00,
2013-02-23 01:40:00,70.2,67.6,29.95,SSE,161,4.0,8.0,92,0.00,,,0.00,meteohub,2013-02-23 06:40:00,
2013-02-23 01:46:00,70.2,67.6,29.94,SE,137,3.0,10.0,92,0.00,,,0.00,meteohub,2013-02-23 06:46:00,
2013-02-23 01:52:00,70.3,67.8,29.95,SSE,152,3.0,10.0,92,0.00,,,0.00,meteohub,2013-02-23 06:52:00,
2013-02-23 01:57:00,70.3,67.8,29.95,SE,137,5.0,10.0,92,0.00,,,0.00,meteohub,2013-02-23 06:57:00,
2013-02-23 02:02:00,70.5,68.0,29.95,SSE,158,4.0,12.0,92,0.00,,,0.00,meteohub,2013-02-23 07:02:00,
2013-02-23 02:07:00,70.5,68.0,29.94,South,177,2.0,12.0,92,0.00,,,0.00,meteohub,2013-02-23 07:07:00,
2013-02-23 02:12:00,70.5,68.0,29.94,SSE,158,10.0,12.0,92,0.00,,,0.00,meteohub,2013-02-23 07:12:00,
2013-02-23 02:17:00,70.5,68.0,29.94,SSE,152,4.0,11.0,92,0.00,,,0.00,meteohub,2013-02-23 07:17:00,
2013-02-23 02:22:00,70.5,68.0,29.94,SSE,158,3.0,11.0,92,0.00,,,0.00,meteohub,2013-02-23 07:22:00,
2013-02-23 02:27:00,70.5,68.4,29.94,SSE,162,3.0,11.0,93,0.00,,,0.00,meteohub,2013-02-23 07:27:00,
2013-02-23 02:32:00,70.5,68.4,29.94,SSE,157,3.0,12.0,93,0.00,,,0.00,meteohub,2013-02-23 07:32:00,
2013-02-23 02:37:00,70.5,68.4,29.94,South,176,9.0,12.0,93,0.00,,,0.00,meteohub,2013-02-23 07:37:00,
2013-02-23 02:42:00,70.5,68.4,29.94,South,172,5.0,12.0,93,0.00,,,0.00,meteohub,2013-02-23 07:42:00,
2013-02-23 02:47:00,70.3,68.2,29.94,SE,138,5.0,12.0,93,0.00,,,0.00,meteohub,2013-02-23 07:47:00,
2013-02-23 02:52:00,70.5,68.4,29.94,SSE,164,3.0,12.0,93,0.00,,,0.00,meteohub,2013-02-23 07:52:00,
2013-02-23 02:57:00,70.3,68.2,29.94,SSE,154,5.0,13.0,93,0.00,,,0.00,meteohub,2013-02-23 07:57:00,
2013-02-23 03:02:00,70.3,68.2,29.94,ESE,106,5.0,13.0,93,0.00,,,0.00,meteohub,2013-02-23 08:02:00,
2013-02-23 03:07:00,70.3,68.2,29.94,SE,140,7.0,13.0,93,0.00,,,0.00,meteohub,2013-02-23 08:07:00,
2013-02-23 03:12:00,70.3,68.2,29.93,SSE,148,6.0,11.0,93,0.00,,,0.00,meteohub,2013-02-23 08:12:00,
2013-02-23 03:17:00,70.2,68.0,29.93,SSE,157,3.0,11.0,93,0.00,,,0.00,meteohub,2013-02-23 08:17:00,
2013-02-23 03:22:00,70.2,68.0,29.93,SSE,155,4.0,11.0,93,0.00,,,0.00,meteohub,2013-02-23 08:22:00,
2013-02-23 03:27:00,70.2,68.4,29.93,SSE,152,5.0,10.0,94,0.00,,,0.00,meteohub,2013-02-23 08:27:00,
2013-02-23 03:32:00,70.0,68.2,29.93,SE,144,2.0,10.0,94,0.00,,,0.00,meteohub,2013-02-23 08:32:00,
2013-02-23 03:37:00,70.0,68.2,29.93,SE,145,2.0,10.0,94,0.00,,,0.00,meteohub,2013-02-23 08:37:00,
2013-02-23 03:42:00,70.0,68.2,29.93,SSE,152,1.0,10.0,94,0.00,,,0.00,meteohub,2013-02-23 08:42:00,
2013-02-23 03:47:00,70.0,68.2,29.93,SSE,148,3.0,11.0,94,0.00,,,0.00,meteohub,2013-02-23 08:47:00,
2013-02-23 03:52:00,70.0,68.2,29.93,SE,145,5.0,11.0,94,0.00,,,0.00,meteohub,2013-02-23 08:52:00,
2013-02-23 03:57:00,70.2,68.7,29.93,South,177,4.0,14.0,95,0.00,,,0.00,meteohub,2013-02-23 08:57:00,
2013-02-23 04:02:00,70.2,68.4,29.93,SSE,164,5.0,14.0,94,0.00,,,0.00,meteohub,2013-02-23 09:02:00,
2013-02-23 04:07:00,70.3,68.9,29.93,South,187,7.0,14.0,95,0.00,,,0.00,meteohub,2013-02-23 09:07:00,
2013-02-23 04:12:00,70.3,68.5,29.92,SSE,160,4.0,11.0,94,0.00,,,0.00,meteohub,2013-02-23 09:12:00,
2013-02-23 04:17:00,70.5,68.7,29.92,SSE,167,6.0,13.0,94,0.00,,,0.00,meteohub,2013-02-23 09:17:00,
2013-02-23 04:22:00,70.5,68.7,29.92,SSE,168,7.0,13.0,94,0.00,,,0.00,meteohub,2013-02-23 09:22:00,
2013-02-23 04:27:00,70.7,68.9,29.92,SSE,152,11.0,13.0,94,0.00,,,0.00,meteohub,2013-02-23 09:27:00,
2013-02-23 04:32:00,70.9,69.1,29.92,SSE,160,5.0,15.0,94,0.00,,,0.00,meteohub,2013-02-23 09:32:00,
2013-02-23 04:37:00,70.9,69.1,29.92,SSE,163,8.0,15.0,94,0.00,,,0.00,meteohub,2013-02-23 09:37:00,
2013-02-23 04:42:00,70.9,68.7,29.91,SSE,158,0.0,15.0,93,0.00,,,0.00,meteohub,2013-02-23 09:42:00,
2013-02-23 04:47:00,70.9,68.7,29.91,SE,139,6.0,13.0,93,0.00,,,0.00,meteohub,2013-02-23 09:47:00,
2013-02-23 04:52:00,70.7,68.5,29.91,SSE,162,8.0,13.0,93,0.00,,,0.00,meteohub,2013-02-23 09:52:00,
2013-02-23 04:57:00,70.7,68.9,29.91,SSE,149,8.0,13.0,94,0.00,,,0.00,meteohub,2013-02-23 09:57:00,
2013-02-23 05:02:00,70.7,68.5,29.91,South,174,7.0,14.0,93,0.00,,,0.00,meteohub,2013-02-23 10:02:00,
2013-02-23 05:07:00,70.7,68.5,29.91,South,179,6.0,14.0,93,0.00,,,0.00,meteohub,2013-02-23 10:07:00,
2013-02-23 05:12:00,70.5,68.7,29.91,SSE,160,6.0,14.0,94,0.00,,,0.00,meteohub,2013-02-23 10:12:00,
2013-02-23 05:17:00,70.5,68.7,29.92,SSE,155,8.0,14.0,94,0.00,,,0.00,meteohub,2013-02-23 10:17:00,
2013-02-23 05:22:00,70.5,68.7,29.91,SSE,159,7.0,16.0,94,0.00,,,0.00,meteohub,2013-02-23 10:22:00,
2013-02-23 05:27:00,70.5,68.7,29.92,South,175,4.0,16.0,94,0.00,,,0.00,meteohub,2013-02-23 10:27:00,
2013-02-23 05:32:00,70.5,68.7,29.92,SSE,168,3.0,16.0,94,0.00,,,0.00,meteohub,2013-02-23 10:32:00,
2013-02-23 05:37:00,70.5,68.7,29.91,South,172,7.0,11.0,94,0.00,,,0.00,meteohub,2013-02-23 10:37:00,
2013-02-23 05:42:00,70.5,68.7,29.91,South,172,8.0,13.0,94,0.00,,,0.00,meteohub,2013-02-23 10:42:00,
2013-02-23 05:47:00,70.5,68.7,29.91,SSE,158,1.0,13.0,94,0.00,,,0.00,meteohub,2013-02-23 10:47:00,
2013-02-23 05:52:00,70.5,68.7,29.91,South,172,7.0,13.0,94,0.00,,,0.00,meteohub,2013-02-23 10:52:00,
2013-02-23 05:57:00,70.5,68.7,29.91,SSE,153,6.0,13.0,94,0.00,,,0.00,meteohub,2013-02-23 10:57:00,
2013-02-23 06:02:00,70.3,68.5,29.92,SSE,147,6.0,14.0,94,0.00,,,0.00,meteohub,2013-02-23 11:02:00,
2013-02-23 06:07:00,70.5,68.7,29.92,South,171,7.0,14.0,94,0.00,,,0.00,meteohub,2013-02-23 11:07:00,
2013-02-23 06:12:00,70.5,68.7,29.92,SW,217,7.0,14.0,94,0.00,,,0.00,meteohub,2013-02-23 11:12:00,
2013-02-23 06:17:00,70.5,68.7,29.92,South,174,8.0,13.0,94,0.00,,,0.00,meteohub,2013-02-23 11:17:00,
2013-02-23 06:24:00,70.7,68.9,29.92,SSE,154,8.0,14.0,94,0.00,,,0.00,meteohub,2013-02-23 11:24:00,
2013-02-23 06:30:00,70.9,69.1,29.92,South,172,7.0,14.0,94,0.00,,,0.00,meteohub,2013-02-23 11:30:00,
2013-02-23 06:36:00,70.9,69.1,29.92,SSE,155,5.0,13.0,94,0.00,,,0.00,meteohub,2013-02-23 11:36:00,
2013-02-23 06:42:00,71.1,69.3,29.92,SSW,203,1.0,14.0,94,0.00,,,0.00,meteohub,2013-02-23 11:42:00,
2013-02-23 06:47:00,71.1,69.3,29.93,SSE,159,15.0,15.0,94,0.00,,,0.00,meteohub,2013-02-23 11:47:00,
2013-02-23 06:52:00,71.2,69.4,29.93,South,180,6.0,16.0,94,0.00,,,0.00,meteohub,2013-02-23 11:52:00,
2013-02-23 06:57:00,71.2,69.1,29.93,SSW,195,7.0,16.0,93,0.00,,,0.00,meteohub,2013-02-23 11:57:00,
2013-02-23 07:02:00,71.4,69.3,29.93,South,173,11.0,16.0,93,0.00,,,0.00,meteohub,2013-02-23 12:02:00,
2013-02-23 07:07:00,71.8,69.6,29.93,South,187,7.0,14.0,93,0.00,,,0.00,meteohub,2013-02-23 12:07:00,
2013-02-23 07:12:00,71.6,69.4,29.93,WSW,253,2.0,13.0,93,0.00,,,0.00,meteohub,2013-02-23 12:12:00,
2013-02-23 07:18:00,71.8,69.6,29.93,SSE,162,2.0,14.0,93,0.00,,,0.00,meteohub,2013-02-23 12:18:00,
2013-02-23 07:24:00,71.8,69.6,29.93,SSE,160,5.0,14.0,93,0.00,,,0.00,meteohub,2013-02-23 12:24:00,
2013-02-23 07:30:00,71.8,69.3,29.93,South,176,6.0,14.0,92,0.00,,,0.00,meteohub,2013-02-23 12:30:00,
2013-02-23 07:36:00,71.8,69.6,29.94,South,176,2.0,14.0,93,0.00,,,0.00,meteohub,2013-02-23 12:36:00,
2013-02-23 07:42:00,72.0,69.8,29.94,South,189,2.0,14.0,93,0.00,,,0.00,meteohub,2013-02-23 12:42:00,
2013-02-23 07:47:00,71.8,69.6,29.94,SSE,168,7.0,14.0,93,0.00,,,0.00,meteohub,2013-02-23 12:47:00,
2013-02-23 07:52:00,71.8,69.6,29.94,SSE,166,8.0,13.0,93,0.00,,,0.00,meteohub,2013-02-23 12:52:00,
2013-02-23 07:57:00,71.8,69.6,29.94,South,189,3.0,13.0,93,0.00,,,0.00,meteohub,2013-02-23 12:57:00,
2013-02-23 08:02:00,71.8,69.6,29.94,SSE,157,2.0,13.0,93,0.00,,,0.00,meteohub,2013-02-23 13:02:00,
2013-02-23 08:07:00,71.8,70.0,29.95,South,181,5.0,14.0,94,0.00,,,0.00,meteohub,2013-02-23 13:07:00,
2013-02-23 08:12:00,71.8,70.0,29.95,SSW,202,3.0,14.0,94,0.00,,,0.00,meteohub,2013-02-23 13:12:00,
2013-02-23 08:17:00,71.8,70.0,29.95,SW,217,8.0,14.0,94,0.00,,,0.00,meteohub,2013-02-23 13:17:00,
2013-02-23 08:22:00,71.8,70.0,29.95,South,176,8.0,13.0,94,0.00,,,0.00,meteohub,2013-02-23 13:22:00,
2013-02-23 08:27:00,71.6,69.8,29.95,SW,219,6.0,14.0,94,0.00,,,0.00,meteohub,2013-02-23 13:27:00,
2013-02-23 08:32:00,71.6,69.8,29.96,WSW,238,5.0,14.0,94,0.00,,,0.00,meteohub,2013-02-23 13:32:00,
2013-02-23 08:37:00,71.4,69.6,29.96,South,175,4.0,14.0,94,0.00,,,0.00,meteohub,2013-02-23 13:37:00,
2013-02-23 08:42:00,71.2,69.8,29.96,South,181,7.0,15.0,95,0.00,,,0.00,meteohub,2013-02-23 13:42:00,
2013-02-23 08:47:00,71.1,69.6,29.96,SE,142,2.0,15.0,95,0.00,,,0.00,meteohub,2013-02-23 13:47:00,
2013-02-23 08:52:00,71.1,69.6,29.96,SSE,168,13.0,15.0,95,0.00,,,0.00,meteohub,2013-02-23 13:52:00,
2013-02-23 08:57:00,71.1,69.6,29.96,SSW,193,7.0,16.0,95,0.00,,,0.00,meteohub,2013-02-23 13:57:00,
2013-02-23 09:03:00,70.9,69.4,29.96,SSE,164,7.0,16.0,95,0.00,,,0.00,meteohub,2013-02-23 14:03:00,
2013-02-23 09:09:00,70.9,69.4,29.96,SSW,206,7.0,16.0,95,0.00,,,0.00,meteohub,2013-02-23 14:09:00,
2013-02-23 09:16:00,70.7,69.3,29.96,South,178,8.0,11.0,95,0.00,,,0.00,meteohub,2013-02-23 14:16:00,
2013-02-23 09:22:00,70.7,69.3,29.96,South,180,3.0,15.0,95,0.00,,,0.00,meteohub,2013-02-23 14:22:00,
2013-02-23 09:27:00,70.7,69.3,29.96,South,190,9.0,15.0,95,0.00,,,0.00,meteohub,2013-02-23 14:27:00,
2013-02-23 09:32:00,70.5,69.1,29.96,SW,220,3.0,15.0,95,0.00,,,0.00,meteohub,2013-02-23 14:32:00,
2013-02-23 09:37:00,70.7,69.4,29.96,SSE,168,6.0,14.0,96,0.00,,,0.00,meteohub,2013-02-23 14:37:00,
2013-02-23 09:42:00,70.9,69.6,29.96,SSE,163,4.0,14.0,96,0.00,,,0.00,meteohub,2013-02-23 14:42:00,
2013-02-23 09:47:00,71.1,69.6,29.96,South,169,7.0,14.0,95,0.00,,,0.00,meteohub,2013-02-23 14:47:00,
2013-02-23 09:52:00,71.2,69.8,29.96,SSE,152,15.0,15.0,95,0.00,,,0.00,meteohub,2013-02-23 14:52:00,
2013-02-23 09:57:00,71.6,70.2,29.96,SSW,204,6.0,15.0,95,0.00,,,0.00,meteohub,2013-02-23 14:57:00,
2013-02-23 10:02:00,71.8,70.0,29.96,SSW,194,6.0,15.0,94,0.00,,,0.00,meteohub,2013-02-23 15:02:00,
2013-02-23 10:07:00,72.0,69.8,29.96,SSE,161,7.0,15.0,93,0.00,,,0.00,meteohub,2013-02-23 15:07:00,
2013-02-23 10:12:00,72.1,70.0,29.96,South,179,7.0,15.0,93,0.00,,,0.00,meteohub,2013-02-23 15:12:00,
2013-02-23 10:17:00,72.5,70.3,29.96,SSW,198,7.0,15.0,93,0.00,,,0.00,meteohub,2013-02-23 15:17:00,
2013-02-23 10:22:00,72.7,70.2,29.96,SSE,167,2.0,15.0,92,0.00,,,0.00,meteohub,2013-02-23 15:22:00,
2013-02-23 10:27:00,73.2,70.7,29.96,SSE,166,8.0,17.0,92,0.00,,,0.00,meteohub,2013-02-23 15:27:00,
2013-02-23 10:34:00,73.8,70.7,29.96,South,171,5.0,17.0,90,0.00,,,0.00,meteohub,2013-02-23 15:34:00,
2013-02-23 10:40:00,74.5,71.4,29.96,South,191,1.0,17.0,90,0.00,,,0.00,meteohub,2013-02-23 15:40:00,
2013-02-23 10:46:00,74.7,70.9,29.96,South,189,12.0,12.0,88,0.00,,,0.00,meteohub,2013-02-23 15:46:00,
2013-02-23 10:52:00,74.8,71.1,29.96,SW,222,6.0,15.0,88,0.00,,,0.00,meteohub,2013-02-23 15:52:00,
2013-02-23 10:57:00,75.0,71.2,29.96,SSE,164,7.0,17.0,88,0.00,,,0.00,meteohub,2013-02-23 15:57:00,
2013-02-23 11:02:00,75.6,71.4,29.96,South,177,13.0,17.0,87,0.00,,,0.00,meteohub,2013-02-23 16:02:00,
2013-02-23 11:07:00,75.7,71.2,29.95,SSW,198,6.0,17.0,86,0.00,,,0.00,meteohub,2013-02-23 16:07:00,
2013-02-23 11:12:00,76.3,71.8,29.96,WSW,240,4.0,15.0,86,0.00,,,0.00,meteohub,2013-02-23 16:12:00,
2013-02-23 11:17:00,76.3,71.4,29.95,SW,236,9.0,18.0,85,0.00,,,0.00,meteohub,2013-02-23 16:17:00,
2013-02-23 11:22:00,75.9,71.1,29.96,South,177,7.0,18.0,85,0.00,,,0.00,meteohub,2013-02-23 16:22:00,
2013-02-23 11:27:00,75.7,71.2,29.95,South,185,3.0,18.0,86,0.00,,,0.00,meteohub,2013-02-23 16:27:00,
2013-02-23 11:32:00,75.9,71.1,29.96,South,185,3.0,17.0,85,0.00,,,0.00,meteohub,2013-02-23 16:32:00,
2013-02-23 11:37:00,75.7,71.2,29.95,SSE,151,10.0,17.0,86,0.00,,,0.00,meteohub,2013-02-23 16:37:00,
2013-02-23 11:42:00,75.9,71.4,29.96,WSW,254,5.0,17.0,86,0.00,,,0.00,meteohub,2013-02-23 16:42:00,
2013-02-23 11:47:00,75.9,71.1,29.95,South,181,11.0,17.0,85,0.00,,,0.00,meteohub,2013-02-23 16:47:00,
2013-02-23 11:52:00,75.9,71.1,29.95,South,185,7.0,17.0,85,0.00,,,0.00,meteohub,2013-02-23 16:52:00,
2013-02-23 11:57:00,75.7,71.2,29.95,West,271,8.0,19.0,86,0.00,,,0.00,meteohub,2013-02-23 16:57:00,
2013-02-23 12:02:00,75.7,71.2,29.95,SW,230,11.0,19.0,86,0.00,,,0.00,meteohub,2013-02-23 17:02:00,
2013-02-23 12:07:00,75.7,71.2,29.95,WSW,239,10.0,20.0,86,0.00,,,0.00,meteohub,2013-02-23 17:07:00,
2013-02-23 12:12:00,75.9,71.4,29.95,WSW,249,6.0,20.0,86,0.00,,,0.00,meteohub,2013-02-23 17:12:00,
2013-02-23 12:17:00,75.9,71.4,29.94,South,189,5.0,20.0,86,0.00,,,0.00,meteohub,2013-02-23 17:17:00,
2013-02-23 12:22:00,76.3,71.4,29.94,SW,225,10.0,19.0,85,0.00,,,0.00,meteohub,2013-02-23 17:22:00,
2013-02-23 12:27:00,76.6,71.8,29.94,WNW,290,10.0,19.0,85,0.00,,,0.00,meteohub,2013-02-23 17:27:00,
2013-02-23 12:32:00,76.6,71.8,29.94,SW,236,7.0,18.0,85,0.00,,,0.00,meteohub,2013-02-23 17:32:00,
2013-02-23 12:37:00,76.6,71.4,29.94,SSE,158,7.0,18.0,84,0.00,,,0.00,meteohub,2013-02-23 17:37:00,
2013-02-23 12:42:00,76.6,71.4,29.94,South,174,7.0,18.0,84,0.00,,,0.00,meteohub,2013-02-23 17:42:00,
2013-02-23 12:47:00,76.8,71.6,29.93,SW,217,10.0,20.0,84,0.00,,,0.00,meteohub,2013-02-23 17:47:00,
2013-02-23 12:52:00,77.2,72.0,29.93,SSW,193,14.0,20.0,84,0.00,,,0.00,meteohub,2013-02-23 17:52:00,
2013-02-23 12:57:00,77.4,71.8,29.93,South,171,6.0,20.0,83,0.00,,,0.00,meteohub,2013-02-23 17:57:00,
2013-02-23 13:02:00,77.0,71.8,29.93,South,181,11.0,17.0,84,0.00,,,0.00,meteohub,2013-02-23 18:02:00,
2013-02-23 13:07:00,77.0,71.8,29.92,South,174,8.0,17.0,84,0.00,,,0.00,meteohub,2013-02-23 18:07:00,
2013-02-23 13:12:00,77.4,72.1,29.92,SSW,192,8.0,17.0,84,0.00,,,0.00,meteohub,2013-02-23 18:12:00,
2013-02-23 13:17:00,77.5,72.0,29.92,West,273,3.0,16.0,83,0.00,,,0.00,meteohub,2013-02-23 18:17:00,
2013-02-23 13:22:00,77.5,72.0,29.92,South,189,6.0,15.0,83,0.00,,,0.00,meteohub,2013-02-23 18:22:00,
2013-02-23 13:27:00,77.2,71.6,29.91,WSW,238,13.0,14.0,83,0.00,,,0.00,meteohub,2013-02-23 18:27:00,
2013-02-23 13:32:00,77.0,71.8,29.91,WSW,247,12.0,19.0,84,0.00,,,0.00,meteohub,2013-02-23 18:32:00,
2013-02-23 13:37:00,76.8,71.6,29.91,SSE,167,9.0,19.0,84,0.00,,,0.00,meteohub,2013-02-23 18:37:00,
2013-02-23 13:42:00,76.6,71.8,29.91,WSW,237,2.0,18.0,85,0.00,,,0.00,meteohub,2013-02-23 18:42:00,
2013-02-23 13:47:00,77.2,72.0,29.91,WSW,249,8.0,18.0,84,0.00,,,0.00,meteohub,2013-02-23 18:47:00,
2013-02-23 13:52:00,77.5,72.0,29.90,SW,235,11.0,17.0,83,0.00,,,0.00,meteohub,2013-02-23 18:52:00,
2013-02-23 13:57:00,77.2,71.6,29.90,WSW,245,10.0,13.0,83,0.00,,,0.00,meteohub,2013-02-23 18:57:00,
2013-02-23 14:02:00,77.4,72.1,29.90,SW,214,11.0,17.0,84,0.00,,,0.00,meteohub,2013-02-23 19:02:00,
2013-02-23 14:07:00,77.2,72.0,29.90,WSW,241,11.0,17.0,84,0.00,,,0.00,meteohub,2013-02-23 19:07:00,
2013-02-23 14:14:00,77.4,72.1,29.90,South,175,2.0,15.0,84,0.00,,,0.00,meteohub,2013-02-23 19:14:00,
2013-02-23 14:20:00,77.4,72.1,29.90,SW,215,13.0,16.0,84,0.00,,,0.00,meteohub,2013-02-23 19:20:00,
2013-02-23 14:26:00,76.8,71.6,29.89,SW,236,5.0,15.0,84,0.00,,,0.00,meteohub,2013-02-23 19:26:00,
2013-02-23 14:32:00,77.0,71.8,29.89,WSW,243,2.0,18.0,84,0.00,,,0.00,meteohub,2013-02-23 19:32:00,
2013-02-23 14:37:00,77.2,72.3,29.89,SSE,158,1.0,18.0,85,0.00,,,0.00,meteohub,2013-02-23 19:37:00,
2013-02-23 14:42:00,77.4,72.1,29.89,South,186,11.0,17.0,84,0.00,,,0.00,meteohub,2013-02-23 19:42:00,
2013-02-23 14:47:00,77.4,72.1,29.89,SSE,167,3.0,15.0,84,0.00,,,0.00,meteohub,2013-02-23 19:47:00,
2013-02-23 14:52:00,77.2,72.0,29.89,SSW,206,5.0,16.0,84,0.00,,,0.00,meteohub,2013-02-23 19:52:00,
2013-02-23 14:57:00,77.5,72.3,29.89,WSW,254,5.0,16.0,84,0.00,,,0.00,meteohub,2013-02-23 19:57:00,
2013-02-23 15:02:00,77.2,72.0,29.88,SW,222,5.0,16.0,84,0.00,,,0.00,meteohub,2013-02-23 20:02:00,
2013-02-23 15:07:00,77.4,72.1,29.88,South,171,4.0,15.0,84,0.00,,,0.00,meteohub,2013-02-23 20:07:00,
2013-02-23 15:12:00,77.4,72.1,29.88,WSW,249,3.0,15.0,84,0.00,,,0.00,meteohub,2013-02-23 20:12:00,
2013-02-23 15:17:00,77.4,71.8,29.88,SSW,204,4.0,14.0,83,0.00,,,0.00,meteohub,2013-02-23 20:17:00,
2013-02-23 15:22:00,77.2,72.0,29.88,SSE,163,4.0,14.0,84,0.00,,,0.00,meteohub,2013-02-23 20:22:00,
2013-02-23 15:27:00,77.2,72.0,29.88,SSW,195,7.0,14.0,84,0.00,,,0.00,meteohub,2013-02-23 20:27:00,
2013-02-23 15:32:00,76.6,71.4,29.88,WSW,258,7.0,16.0,84,0.00,,,0.00,meteohub,2013-02-23 20:32:00,
2013-02-23 15:37:00,76.6,71.8,29.88,WSW,253,4.0,16.0,85,0.00,,,0.00,meteohub,2013-02-23 20:37:00,
2013-02-23 15:42:00,76.6,71.8,29.88,SW,235,10.0,16.0,85,0.00,,,0.00,meteohub,2013-02-23 20:42:00,
2013-02-23 15:47:00,75.9,71.4,29.88,SSE,158,6.0,14.0,86,0.00,,,0.00,meteohub,2013-02-23 20:47:00,
2013-02-23 15:52:00,76.3,71.8,29.87,SSE,168,6.0,14.0,86,0.00,,,0.00,meteohub,2013-02-23 20:52:00,
2013-02-23 15:57:00,76.5,72.0,29.87,WSW,248,5.0,14.0,86,0.00,,,0.00,meteohub,2013-02-23 20:57:00,
2013-02-23 16:02:00,76.8,72.0,29.87,WSW,247,7.0,11.0,85,0.00,,,0.00,meteohub,2013-02-23 21:02:00,
2013-02-23 16:07:00,77.0,71.8,29.87,WSW,237,5.0,11.0,84,0.00,,,0.00,meteohub,2013-02-23 21:07:00,
2013-02-23 16:12:00,77.4,72.1,29.87,South,184,1.0,13.0,84,0.00,,,0.00,meteohub,2013-02-23 21:12:00,
2013-02-23 16:17:00,77.4,72.1,29.87,WSW,237,1.0,13.0,84,0.00,,,0.00,meteohub,2013-02-23 21:17:00,
2013-02-23 16:22:00,77.0,71.8,29.87,South,177,6.0,13.0,84,0.00,,,0.00,meteohub,2013-02-23 21:22:00,
2013-02-23 16:27:00,76.5,71.6,29.87,West,266,8.0,13.0,85,0.00,,,0.00,meteohub,2013-02-23 21:27:00,
2013-02-23 16:32:00,75.6,71.1,29.87,South,191,7.0,14.0,86,0.00,,,0.00,meteohub,2013-02-23 21:32:00,
2013-02-23 16:37:00,75.0,70.9,29.87,SSW,204,7.0,14.0,87,0.00,,,0.00,meteohub,2013-02-23 21:37:00,
2013-02-23 16:42:00,74.7,70.9,29.87,South,180,9.0,15.0,88,0.00,,,0.00,meteohub,2013-02-23 21:42:00,
2013-02-23 16:47:00,74.3,70.9,29.87,SSW,212,0.0,15.0,89,0.00,,,0.00,meteohub,2013-02-23 21:47:00,
2013-02-23 16:52:00,74.1,71.1,29.87,South,186,8.0,15.0,90,0.00,,,0.00,meteohub,2013-02-23 21:52:00,
2013-02-23 16:57:00,74.1,71.1,29.87,South,175,8.0,13.0,90,0.00,,,0.00,meteohub,2013-02-23 21:57:00,
2013-02-23 17:03:00,74.1,71.1,29.87,SW,222,6.0,10.0,90,0.00,,,0.00,meteohub,2013-02-23 22:03:00,
2013-02-23 17:09:00,74.1,71.1,29.87,South,174,5.0,12.0,90,0.00,,,0.00,meteohub,2013-02-23 22:09:00,
2013-02-23 17:15:00,74.5,71.4,29.87,SSW,204,2.0,12.0,90,0.00,,,0.00,meteohub,2013-02-23 22:15:00,
2013-02-23 17:21:00,74.5,71.4,29.87,WSW,243,11.0,12.0,90,0.00,,,0.00,meteohub,2013-02-23 22:21:00,
2013-02-23 17:27:00,74.5,71.4,29.87,SSW,204,4.0,13.0,90,0.00,,,0.00,meteohub,2013-02-23 22:27:00,
2013-02-23 17:32:00,74.5,71.4,29.88,SSW,212,0.0,13.0,90,0.00,,,0.00,meteohub,2013-02-23 22:32:00,
2013-02-23 17:37:00,74.3,71.2,29.88,SW,215,0.0,13.0,90,0.00,,,0.00,meteohub,2013-02-23 22:37:00,
2013-02-23 17:42:00,74.1,71.1,29.88,SW,228,4.0,9.0,90,0.00,,,0.00,meteohub,2013-02-23 22:42:00,
2013-02-23 17:47:00,73.6,70.5,29.88,SSW,193,1.0,9.0,90,0.00,,,0.00,meteohub,2013-02-23 22:47:00,
2013-02-23 17:52:00,73.0,70.0,29.88,SW,235,7.0,9.0,90,0.00,,,0.00,meteohub,2013-02-23 22:52:00,
2013-02-23 17:57:00,72.9,70.3,29.88,SSW,204,3.0,12.0,92,0.00,,,0.00,meteohub,2013-02-23 22:57:00,
2013-02-23 18:02:00,72.7,70.2,29.88,SW,220,5.0,14.0,92,0.00,,,0.00,meteohub,2013-02-23 23:02:00,
2013-02-23 18:07:00,72.5,70.3,29.88,South,182,3.0,14.0,93,0.00,,,0.00,meteohub,2013-02-23 23:07:00,
2013-02-23 18:12:00,72.3,70.2,29.89,WSW,239,6.0,14.0,93,0.00,,,0.00,meteohub,2013-02-23 23:12:00,
2013-02-23 18:17:00,72.1,70.0,29.89,SW,236,7.0,11.0,93,0.00,,,0.00,meteohub,2013-02-23 23:17:00,
2013-02-23 18:22:00,72.0,69.8,29.89,WSW,245,4.0,11.0,93,0.00,,,0.00,meteohub,2013-02-23 23:22:00,
2013-02-23 18:27:00,71.8,70.0,29.89,WSW,243,4.0,11.0,94,0.00,,,0.00,meteohub,2013-02-23 23:27:00,
2013-02-23 18:32:00,71.8,70.0,29.89,West,270,1.0,11.0,94,0.00,,,0.00,meteohub,2013-02-23 23:32:00,
2013-02-23 18:37:00,71.6,69.8,29.89,SW,224,2.0,11.0,94,0.00,,,0.00,meteohub,2013-02-23 23:37:00,
2013-02-23 18:42:00,71.6,69.8,29.89,South,177,0.0,10.0,94,0.00,,,0.00,meteohub,2013-02-23 23:42:00,
2013-02-23 18:47:00,71.6,70.2,29.89,West,260,2.0,10.0,95,0.00,,,0.00,meteohub,2013-02-23 23:47:00,
2013-02-23 18:52:00,71.4,70.0,29.89,WSW,247,1.0,9.0,95,0.00,,,0.00,meteohub,2013-02-23 23:52:00,
2013-02-23 18:57:00,71.4,70.0,29.89,SSE,168,2.0,11.0,95,0.00,,,0.00,meteohub,2013-02-23 23:57:00,
2013-02-23 19:02:00,71.4,70.0,29.90,SSW,200,2.0,11.0,95,0.00,,,0.00,meteohub,2013-02-24 00:02:00,
2013-02-23 19:07:00,71.4,70.0,29.90,SSE,148,0.0,13.0,95,0.00,,,0.00,meteohub,2013-02-24 00:07:00,
2013-02-23 19:12:00,71.2,69.8,29.90,SW,222,4.0,13.0,95,0.00,,,0.00,meteohub,2013-02-24 00:12:00,
2013-02-23 19:17:00,71.2,69.8,29.90,South,176,1.0,10.0,95,0.00,,,0.00,meteohub,2013-02-24 00:17:00,
2013-02-23 19:22:00,71.2,69.8,29.90,South,177,5.0,7.0,95,0.00,,,0.00,meteohub,2013-02-24 00:22:00,
2013-02-23 19:27:00,71.2,69.8,29.90,SW,222,3.0,10.0,95,0.00,,,0.00,meteohub,2013-02-24 00:27:00,
2013-02-23 19:32:00,71.1,69.6,29.90,South,170,7.0,10.0,95,0.00,,,0.00,meteohub,2013-02-24 00:32:00,
2013-02-23 19:37:00,71.1,69.6,29.90,South,174,5.0,10.0,95,0.00,,,0.00,meteohub,2013-02-24 00:37:00,
2013-02-23 19:43:00,71.1,69.6,29.90,South,173,3.0,10.0,95,0.00,,,0.00,meteohub,2013-02-24 00:43:00,
2013-02-23 19:49:00,70.9,69.4,29.90,SSE,165,2.0,10.0,95,0.00,,,0.00,meteohub,2013-02-24 00:49:00,
2013-02-23 19:55:00,70.9,69.4,29.90,South,172,4.0,10.0,95,0.00,,,0.00,meteohub,2013-02-24 00:55:00,
2013-02-23 20:01:00,70.9,69.4,29.89,South,180,4.0,9.0,95,0.00,,,0.00,meteohub,2013-02-24 01:01:00,
2013-02-23 20:07:00,70.9,69.6,29.89,South,181,3.0,9.0,96,0.00,,,0.00,meteohub,2013-02-24 01:07:00,
2013-02-23 20:12:00,71.1,69.8,29.89,South,175,4.0,8.0,96,0.00,,,0.00,meteohub,2013-02-24 01:12:00,
2013-02-23 20:17:00,71.1,69.8,29.89,South,187,3.0,8.0,96,0.00,,,0.00,meteohub,2013-02-24 01:17:00,
2013-02-23 20:22:00,70.9,69.6,29.89,SSE,168,3.0,9.0,96,0.00,,,0.00,meteohub,2013-02-24 01:22:00,
2013-02-23 20:27:00,70.9,69.6,29.89,SSE,167,1.0,9.0,96,0.00,,,0.00,meteohub,2013-02-24 01:27:00,
2013-02-23 20:32:00,70.9,69.6,29.89,South,171,1.0,9.0,96,0.00,,,0.00,meteohub,2013-02-24 01:32:00,
2013-02-23 20:37:00,70.9,69.6,29.89,SSE,158,4.0,8.0,96,0.00,,,0.00,meteohub,2013-02-24 01:37:00,
2013-02-23 20:42:00,70.9,69.6,29.90,SW,231,5.0,8.0,96,0.00,,,0.00,meteohub,2013-02-24 01:42:00,
2013-02-23 20:47:00,70.9,69.6,29.89,SSE,165,4.0,9.0,96,0.00,,,0.00,meteohub,2013-02-24 01:47:00,
2013-02-23 20:52:00,70.9,69.6,29.90,South,176,4.0,9.0,96,0.00,,,0.00,meteohub,2013-02-24 01:52:00,
2013-02-23 20:57:00,70.9,69.6,29.90,South,177,4.0,9.0,96,0.00,,,0.00,meteohub,2013-02-24 01:57:00,
2013-02-23 21:02:00,70.7,69.4,29.90,South,170,3.0,8.0,96,0.00,,,0.00,meteohub,2013-02-24 02:02:00,
2013-02-23 21:07:00,70.7,69.4,29.90,SSE,166,3.0,10.0,96,0.00,,,0.00,meteohub,2013-02-24 02:07:00,
2013-02-23 21:12:00,70.5,69.3,29.90,SSE,163,5.0,10.0,96,0.00,,,0.00,meteohub,2013-02-24 02:12:00,
2013-02-23 21:17:00,70.5,69.6,29.90,SSE,160,3.0,11.0,97,0.00,,,0.00,meteohub,2013-02-24 02:17:00,
2013-02-23 21:22:00,70.3,69.4,29.90,SSW,202,4.0,12.0,97,0.00,,,0.00,meteohub,2013-02-24 02:22:00,
2013-02-23 21:27:00,70.3,69.4,29.91,SSE,164,5.0,12.0,97,0.00,,,0.00,meteohub,2013-02-24 02:27:00,
2013-02-23 21:32:00,70.3,69.4,29.91,South,175,0.0,12.0,97,0.00,,,0.00,meteohub,2013-02-24 02:32:00,
2013-02-23 21:37:00,70.2,69.3,29.91,SSE,163,5.0,8.0,97,0.00,,,0.00,meteohub,2013-02-24 02:37:00,
2013-02-23 21:42:00,70.2,69.3,29.91,South,172,0.0,8.0,97,0.00,,,0.00,meteohub,2013-02-24 02:42:00,
2013-02-23 21:47:00,70.0,69.1,29.91,SSE,159,0.0,8.0,97,0.00,,,0.00,meteohub,2013-02-24 02:47:00,
2013-02-23 21:52:00,69.6,68.7,29.91,SSE,163,6.0,11.0,97,0.00,,,0.00,meteohub,2013-02-24 02:52:00,
2013-02-23 21:57:00,69.6,68.7,29.91,SSE,168,5.0,11.0,97,0.00,,,0.00,meteohub,2013-02-24 02:57:00,
2013-02-23 22:02:00,69.4,68.5,29.91,SSE,166,6.0,9.0,97,0.00,,,0.00,meteohub,2013-02-24 03:02:00,
2013-02-23 22:07:00,69.4,68.5,29.91,South,187,0.0,11.0,97,0.00,,,0.00,meteohub,2013-02-24 03:07:00,
2013-02-23 22:12:00,69.4,68.5,29.91,SSE,166,3.0,11.0,97,0.00,,,0.00,meteohub,2013-02-24 03:12:00,
2013-02-23 22:17:00,69.4,68.5,29.91,South,177,3.0,11.0,97,0.00,,,0.00,meteohub,2013-02-24 03:17:00,
2013-02-23 22:22:00,69.3,68.4,29.91,South,177,5.0,9.0,97,0.00,,,0.00,meteohub,2013-02-24 03:22:00,
2013-02-23 22:27:00,69.3,68.4,29.91,South,172,4.0,9.0,97,0.00,,,0.00,meteohub,2013-02-24 03:27:00,
2013-02-23 22:32:00,69.3,68.7,29.91,SSE,164,0.0,10.0,98,0.00,,,0.00,meteohub,2013-02-24 03:32:00,
2013-02-23 22:37:00,69.3,68.7,29.91,SSE,168,0.0,10.0,98,0.00,,,0.00,meteohub,2013-02-24 03:37:00,
2013-02-23 22:42:00,69.3,68.7,29.92,SW,236,3.0,10.0,98,0.00,,,0.00,meteohub,2013-02-24 03:42:00,
2013-02-23 22:47:00,69.3,68.7,29.92,SW,220,4.0,8.0,98,0.00,,,0.00,meteohub,2013-02-24 03:47:00,
2013-02-23 22:52:00,69.3,68.7,29.92,WSW,243,6.0,8.0,98,0.00,,,0.00,meteohub,2013-02-24 03:52:00,
2013-02-23 22:57:00,69.1,68.2,29.92,SSW,200,0.0,8.0,97,0.00,,,0.00,meteohub,2013-02-24 03:57:00,
2013-02-23 23:02:00,69.3,68.7,29.92,SW,234,0.0,8.0,98,0.00,,,0.00,meteohub,2013-02-24 04:02:00,
2013-02-23 23:07:00,69.3,68.7,29.92,South,177,1.0,8.0,98,0.00,,,0.00,meteohub,2013-02-24 04:07:00,
2013-02-23 23:12:00,69.1,68.5,29.91,South,173,2.0,7.0,98,0.00,,,0.00,meteohub,2013-02-24 04:12:00,
2013-02-23 23:17:00,69.1,68.5,29.91,SSE,168,5.0,8.0,98,0.00,,,0.00,meteohub,2013-02-24 04:17:00,
2013-02-23 23:22:00,69.1,68.5,29.90,South,181,3.0,9.0,98,0.00,,,0.00,meteohub,2013-02-24 04:22:00,
2013-02-23 23:27:00,69.1,68.5,29.90,SSE,162,2.0,9.0,98,0.00,,,0.00,meteohub,2013-02-24 04:27:00,
2013-02-23 23:32:00,69.1,68.5,29.90,South,187,0.0,9.0,98,0.00,,,0.00,meteohub,2013-02-24 04:32:00,
2013-02-23 23:37:00,69.1,68.5,29.90,SSE,161,2.0,8.0,98,0.00,,,0.00,meteohub,2013-02-24 04:37:00,
2013-02-23 23:42:00,69.1,68.5,29.90,South,169,4.0,8.0,98,0.00,,,0.00,meteohub,2013-02-24 04:42:00,
2013-02-23 23:47:00,68.9,68.4,29.90,South,170,0.0,9.0,98,0.00,,,0.00,meteohub,2013-02-24 04:47:00,
2013-02-23 23:52:00,68.7,68.2,29.90,SSE,168,1.0,9.0,98,0.00,,,0.00,meteohub,2013-02-24 04:52:00,
2013-02-23 23:57:00,68.7,68.2,29.90,SSE,158,3.0,9.0,98,0.00,,,0.00,meteohub,2013-02-24 04:57:00,